Year,Month,Day,Hour,Minute,Value (Times are PST for temperature in C)
2010,01,19,00,00,3.00
2010,01,19,00,01,3.00
2010,01,19,00,02,3.00
2010,01,19,00,03,3.00
2010,01,19,00,04,3.00
2010,01,19,00,05,3.00
2010,01,19,00,06,3.00
2010,01,19,00,07,3.10
2010,01,19,00,08,3.10
2010,01,19,00,09,3.10
2010,01,19,00,10,3.10
2010,01,19,00,11,3.10
2010,01,19,00,12,3.10
2010,01,19,00,13,3.10
2010,01,19,00,14,3.20
2010,01,19,00,15,3.20
2010,01,19,00,16,3.20
2010,01,19,00,17,3.20
2010,01,19,00,18,3.20
2010,01,19,00,19,3.20
2010,01,19,00,20,3.20
2010,01,19,00,21,3.20
2010,01,19,00,22,3.20
2010,01,19,00,23,3.20
2010,01,19,00,24,3.20
2010,01,19,00,25,3.20
2010,01,19,00,26,3.20
2010,01,19,00,27,3.20
2010,01,19,00,28,3.20
2010,01,19,00,29,3.20
2010,01,19,00,30,3.10
2010,01,19,00,31,3.10
2010,01,19,00,32,3.10
2010,01,19,00,33,3.10
2010,01,19,00,34,3.10
2010,01,19,00,35,3.20
2010,01,19,00,36,3.20
2010,01,19,00,37,3.20
2010,01,19,00,38,3.20
2010,01,19,00,39,3.30
2010,01,19,00,40,3.30
2010,01,19,00,41,3.30
2010,01,19,00,42,3.30
2010,01,19,00,43,3.30
2010,01,19,00,44,3.30
2010,01,19,00,45,3.30
2010,01,19,00,46,3.30
2010,01,19,00,47,3.20
2010,01,19,00,48,3.20
2010,01,19,00,49,3.20
2010,01,19,00,50,3.20
2010,01,19,00,51,3.20
2010,01,19,00,52,3.20
2010,01,19,00,53,3.20
2010,01,19,00,54,3.20
2010,01,19,00,55,3.20
2010,01,19,00,56,3.20
2010,01,19,00,57,3.20
2010,01,19,00,58,3.20
2010,01,19,00,59,3.20
2010,01,19,01,00,3.20
2010,01,19,01,01,3.30
2010,01,19,01,02,3.30
2010,01,19,01,03,3.30
2010,01,19,01,04,3.30
2010,01,19,01,05,3.30
2010,01,19,01,06,3.30
2010,01,19,01,07,3.30
2010,01,19,01,08,3.30
2010,01,19,01,09,3.30
2010,01,19,01,10,3.30
2010,01,19,01,11,3.30
2010,01,19,01,12,3.40
2010,01,19,01,13,3.40
2010,01,19,01,14,3.50
2010,01,19,01,15,3.50
2010,01,19,01,16,3.50
2010,01,19,01,17,3.50
2010,01,19,01,18,3.50
2010,01,19,01,19,3.50
2010,01,19,01,20,3.50
2010,01,19,01,21,3.50
2010,01,19,01,22,3.50
2010,01,19,01,23,3.50
2010,01,19,01,24,3.50
2010,01,19,01,25,3.50
2010,01,19,01,26,3.50
2010,01,19,01,27,3.50
2010,01,19,01,28,3.50
2010,01,19,01,29,3.50
2010,01,19,01,30,3.50
2010,01,19,01,31,3.50
2010,01,19,01,32,3.50
2010,01,19,01,33,3.50
2010,01,19,01,34,3.50
2010,01,19,01,35,3.50
2010,01,19,01,36,3.50
2010,01,19,01,37,3.50
2010,01,19,01,38,3.50
2010,01,19,01,39,3.50
2010,01,19,01,40,3.60
2010,01,19,01,41,3.60
2010,01,19,01,42,3.60
2010,01,19,01,43,3.60
2010,01,19,01,44,3.60
2010,01,19,01,45,3.60
2010,01,19,01,46,3.60
2010,01,19,01,47,3.60
2010,01,19,01,48,3.60
2010,01,19,01,49,3.60
2010,01,19,01,50,3.70
2010,01,19,01,51,3.70
2010,01,19,01,52,3.70
2010,01,19,01,53,3.70
2010,01,19,01,54,3.70
2010,01,19,01,55,3.70
2010,01,19,01,56,3.70
2010,01,19,01,57,3.70
2010,01,19,01,58,3.70
2010,01,19,01,59,3.70
2010,01,19,02,00,3.70
2010,01,19,02,01,3.70
2010,01,19,02,02,3.70
2010,01,19,02,03,3.70
2010,01,19,02,04,3.80
2010,01,19,02,05,3.80
2010,01,19,02,06,3.80
2010,01,19,02,07,3.80
2010,01,19,02,08,3.90
2010,01,19,02,09,3.90
2010,01,19,02,10,3.90
2010,01,19,02,11,3.90
2010,01,19,02,12,3.90
2010,01,19,02,13,3.90
2010,01,19,02,14,4.00
2010,01,19,02,15,4.00
2010,01,19,02,16,4.00
2010,01,19,02,17,4.00
2010,01,19,02,18,4.00
2010,01,19,02,19,4.10
2010,01,19,02,20,4.00
2010,01,19,02,21,4.10
2010,01,19,02,22,4.10
2010,01,19,02,23,4.10
2010,01,19,02,24,4.10
2010,01,19,02,25,4.10
2010,01,19,02,26,4.10
2010,01,19,02,27,4.10
2010,01,19,02,28,4.20
2010,01,19,02,29,4.20
2010,01,19,02,30,4.20
2010,01,19,02,31,4.20
2010,01,19,02,32,4.20
2010,01,19,02,33,4.20
2010,01,19,02,34,4.20
2010,01,19,02,35,4.20
2010,01,19,02,36,4.20
2010,01,19,02,37,4.20
2010,01,19,02,38,4.20
2010,01,19,02,39,4.20
2010,01,19,02,40,4.20
2010,01,19,02,41,4.20
2010,01,19,02,42,4.20
2010,01,19,02,43,4.20
2010,01,19,02,44,4.20
2010,01,19,02,45,4.20
2010,01,19,02,46,4.30
2010,01,19,02,47,4.30
2010,01,19,02,48,4.30
2010,01,19,02,49,4.30
2010,01,19,02,50,4.30
2010,01,19,02,51,4.30
2010,01,19,02,52,4.30
2010,01,19,02,53,4.30
2010,01,19,02,54,4.30
2010,01,19,02,55,4.30
2010,01,19,02,56,4.30
2010,01,19,02,57,4.30
2010,01,19,02,58,4.30
2010,01,19,02,59,4.30
2010,01,19,03,00,4.30
2010,01,19,03,01,4.30
2010,01,19,03,02,4.30
2010,01,19,03,03,4.30
2010,01,19,03,04,4.30
2010,01,19,03,05,4.30
2010,01,19,03,06,4.30
2010,01,19,03,07,4.30
2010,01,19,03,08,4.30
2010,01,19,03,09,4.30
2010,01,19,03,10,4.30
2010,01,19,03,11,4.30
2010,01,19,03,12,4.30
2010,01,19,03,13,4.30
2010,01,19,03,14,4.30
2010,01,19,03,15,4.30
2010,01,19,03,16,4.30
2010,01,19,03,17,4.30
2010,01,19,03,18,4.30
2010,01,19,03,19,4.30
2010,01,19,03,20,4.30
2010,01,19,03,21,4.30
2010,01,19,03,22,4.30
2010,01,19,03,23,4.30
2010,01,19,03,24,4.30
2010,01,19,03,25,4.30
2010,01,19,03,26,4.30
2010,01,19,03,27,4.30
2010,01,19,03,28,4.20
2010,01,19,03,29,4.20
2010,01,19,03,30,4.20
2010,01,19,03,31,4.20
2010,01,19,03,32,4.20
2010,01,19,03,33,4.20
2010,01,19,03,34,4.20
2010,01,19,03,35,4.20
2010,01,19,03,36,4.20
2010,01,19,03,37,4.20
2010,01,19,03,38,4.20
2010,01,19,03,39,4.10
2010,01,19,03,40,4.10
2010,01,19,03,41,4.10
2010,01,19,03,42,4.10
2010,01,19,03,43,4.10
2010,01,19,03,44,4.10
2010,01,19,03,45,4.10
2010,01,19,03,46,4.10
2010,01,19,03,47,4.10
2010,01,19,03,48,4.00
2010,01,19,03,49,4.00
2010,01,19,03,50,4.00
2010,01,19,03,51,4.00
2010,01,19,03,52,4.00
2010,01,19,03,53,4.00
2010,01,19,03,54,4.00
2010,01,19,03,55,3.90
2010,01,19,03,56,3.90
2010,01,19,03,57,3.90
2010,01,19,03,58,3.90
2010,01,19,03,59,3.90
2010,01,19,04,00,3.90
2010,01,19,04,01,3.90
2010,01,19,04,02,3.90
2010,01,19,04,03,3.90
2010,01,19,04,04,3.90
2010,01,19,04,05,3.90
2010,01,19,04,06,3.90
2010,01,19,04,07,3.90
2010,01,19,04,08,3.90
2010,01,19,04,09,3.90
2010,01,19,04,10,3.90
2010,01,19,04,11,3.90
2010,01,19,04,12,3.90
2010,01,19,04,13,3.90
2010,01,19,04,14,3.90
2010,01,19,04,15,3.90
2010,01,19,04,16,3.90
2010,01,19,04,17,3.90
2010,01,19,04,18,3.90
2010,01,19,04,19,3.90
2010,01,19,04,20,3.90
2010,01,19,04,21,3.90
2010,01,19,04,22,3.90
2010,01,19,04,23,3.90
2010,01,19,04,24,3.90
2010,01,19,04,25,3.90
2010,01,19,04,26,3.90
2010,01,19,04,27,3.90
2010,01,19,04,28,3.90
2010,01,19,04,29,3.90
2010,01,19,04,30,3.80
2010,01,19,04,31,3.80
2010,01,19,04,32,3.80
2010,01,19,04,33,3.80
2010,01,19,04,34,3.80
2010,01,19,04,35,3.80
2010,01,19,04,36,3.80
2010,01,19,04,37,3.90
2010,01,19,04,38,3.90
2010,01,19,04,39,3.90
2010,01,19,04,40,3.90
2010,01,19,04,41,3.90
2010,01,19,04,42,3.90
2010,01,19,04,43,3.90
2010,01,19,04,44,3.90
2010,01,19,04,45,3.90
2010,01,19,04,46,3.90
2010,01,19,04,47,3.90
2010,01,19,04,48,3.90
2010,01,19,04,49,3.90
2010,01,19,04,50,3.90
2010,01,19,04,51,3.90
2010,01,19,04,52,3.90
2010,01,19,04,53,3.90
2010,01,19,04,54,3.90
2010,01,19,04,55,3.90
2010,01,19,04,56,3.90
2010,01,19,04,57,3.90
2010,01,19,04,58,3.90
2010,01,19,04,59,3.90
2010,01,19,05,00,3.90
2010,01,19,05,01,3.90
2010,01,19,05,02,3.90
2010,01,19,05,03,3.90
2010,01,19,05,04,3.90
2010,01,19,05,05,3.90
2010,01,19,05,06,3.90
2010,01,19,05,07,3.90
2010,01,19,05,08,3.90
2010,01,19,05,09,3.90
2010,01,19,05,10,3.90
2010,01,19,05,11,3.90
2010,01,19,05,12,4.00
2010,01,19,05,13,4.00
2010,01,19,05,14,4.00
2010,01,19,05,15,4.00
2010,01,19,05,16,4.00
2010,01,19,05,17,4.00
2010,01,19,05,18,4.00
2010,01,19,05,19,4.00
2010,01,19,05,20,4.10
2010,01,19,05,21,4.10
2010,01,19,05,22,4.10
2010,01,19,05,23,4.10
2010,01,19,05,24,4.10
2010,01,19,05,25,4.10
2010,01,19,05,26,4.10
2010,01,19,05,27,4.10
2010,01,19,05,28,4.10
2010,01,19,05,29,4.10
2010,01,19,05,30,4.10
2010,01,19,05,31,4.00
2010,01,19,05,32,4.10
2010,01,19,05,33,4.10
2010,01,19,05,34,4.10
2010,01,19,05,35,4.10
2010,01,19,05,36,4.10
2010,01,19,05,37,4.10
2010,01,19,05,38,4.10
2010,01,19,05,39,4.10
2010,01,19,05,40,4.10
2010,01,19,05,41,4.10
2010,01,19,05,42,4.20
2010,01,19,05,43,4.20
2010,01,19,05,44,4.30
2010,01,19,05,45,4.30
2010,01,19,05,46,4.30
2010,01,19,05,47,4.30
2010,01,19,05,48,4.40
2010,01,19,05,49,4.40
2010,01,19,05,50,4.40
2010,01,19,05,51,4.40
2010,01,19,05,52,4.40
2010,01,19,05,53,4.50
2010,01,19,05,54,4.50
2010,01,19,05,55,4.60
2010,01,19,05,56,4.70
2010,01,19,05,57,4.80
2010,01,19,05,58,4.90
2010,01,19,05,59,5.00
2010,01,19,06,00,5.10
2010,01,19,06,01,5.20
2010,01,19,06,02,5.20
2010,01,19,06,03,5.30
2010,01,19,06,04,5.40
2010,01,19,06,05,5.50
2010,01,19,06,06,5.60
2010,01,19,06,07,5.80
2010,01,19,06,08,5.90
2010,01,19,06,09,6.00
2010,01,19,06,10,6.20
2010,01,19,06,11,6.20
2010,01,19,06,12,6.30
2010,01,19,06,13,6.50
2010,01,19,06,14,6.50
2010,01,19,06,15,6.60
2010,01,19,06,16,6.70
2010,01,19,06,17,6.70
2010,01,19,06,18,6.80
2010,01,19,06,19,6.80
2010,01,19,06,20,6.80
2010,01,19,06,21,6.90
2010,01,19,06,22,6.90
2010,01,19,06,23,6.90
2010,01,19,06,24,7.00
2010,01,19,06,25,7.00
2010,01,19,06,26,7.00
2010,01,19,06,27,6.90
2010,01,19,06,28,6.90
2010,01,19,06,29,6.90
2010,01,19,06,30,6.90
2010,01,19,06,31,6.90
2010,01,19,06,32,6.90
2010,01,19,06,33,6.90
2010,01,19,06,34,6.90
2010,01,19,06,35,6.80
2010,01,19,06,36,6.80
2010,01,19,06,37,6.80
2010,01,19,06,38,6.70
2010,01,19,06,39,6.60
2010,01,19,06,40,6.60
2010,01,19,06,41,6.50
2010,01,19,06,42,6.50
2010,01,19,06,43,6.40
2010,01,19,06,44,6.40
2010,01,19,06,45,6.40
2010,01,19,06,46,6.40
2010,01,19,06,47,6.40
2010,01,19,06,48,6.40
2010,01,19,06,49,6.50
2010,01,19,06,50,6.60
2010,01,19,06,51,6.60
2010,01,19,06,52,6.70
2010,01,19,06,53,6.70
2010,01,19,06,54,6.70
2010,01,19,06,55,6.70
2010,01,19,06,56,6.70
2010,01,19,06,57,6.70
2010,01,19,06,58,6.80
2010,01,19,06,59,6.80
2010,01,19,07,00,6.80
2010,01,19,07,01,6.80
2010,01,19,07,02,6.80
2010,01,19,07,03,6.80
2010,01,19,07,04,6.80
2010,01,19,07,05,6.80
2010,01,19,07,06,6.80
2010,01,19,07,07,6.80
2010,01,19,07,08,6.80
2010,01,19,07,09,6.80
2010,01,19,07,10,6.80
2010,01,19,07,11,6.80
2010,01,19,07,12,6.70
2010,01,19,07,13,6.70
2010,01,19,07,14,6.70
2010,01,19,07,15,6.70
2010,01,19,07,16,6.70
2010,01,19,07,17,6.80
2010,01,19,07,18,6.90
2010,01,19,07,19,6.90
2010,01,19,07,20,7.00
2010,01,19,07,21,7.10
2010,01,19,07,22,7.10
2010,01,19,07,23,7.20
2010,01,19,07,24,7.30
2010,01,19,07,25,7.30
2010,01,19,07,26,7.40
2010,01,19,07,27,7.50
2010,01,19,07,28,7.60
2010,01,19,07,29,7.60
2010,01,19,07,30,7.60
2010,01,19,07,31,7.70
2010,01,19,07,32,7.70
2010,01,19,07,33,7.70
2010,01,19,07,34,7.70
2010,01,19,07,35,7.70
2010,01,19,07,36,7.70
2010,01,19,07,37,7.70
2010,01,19,07,38,7.70
2010,01,19,07,39,7.80
2010,01,19,07,40,7.80
2010,01,19,07,41,7.80
2010,01,19,07,42,7.80
2010,01,19,07,43,7.80
2010,01,19,07,44,7.80
2010,01,19,07,45,7.80
2010,01,19,07,46,7.80
2010,01,19,07,47,7.80
2010,01,19,07,48,7.80
2010,01,19,07,49,7.80
2010,01,19,07,50,7.80
2010,01,19,07,51,7.70
2010,01,19,07,52,7.70
2010,01,19,07,53,7.80
2010,01,19,07,54,7.80
2010,01,19,07,55,7.80
2010,01,19,07,56,7.80
2010,01,19,07,57,7.80
2010,01,19,07,58,7.80
2010,01,19,07,59,7.80
2010,01,19,08,00,7.80
2010,01,19,08,01,7.80
2010,01,19,08,02,7.80
2010,01,19,08,03,7.80
2010,01,19,08,04,7.80
2010,01,19,08,05,7.70
2010,01,19,08,06,7.80
2010,01,19,08,07,7.70
2010,01,19,08,08,7.70
2010,01,19,08,09,7.70
2010,01,19,08,10,7.70
2010,01,19,08,11,7.70
2010,01,19,08,12,7.70
2010,01,19,08,13,7.70
2010,01,19,08,14,7.70
2010,01,19,08,15,7.70
2010,01,19,08,16,7.70
2010,01,19,08,17,7.70
2010,01,19,08,18,7.70
2010,01,19,08,19,7.70
2010,01,19,08,20,7.70
2010,01,19,08,21,7.70
2010,01,19,08,22,7.70
2010,01,19,08,23,7.70
2010,01,19,08,24,7.70
2010,01,19,08,25,7.70
2010,01,19,08,26,7.70
2010,01,19,08,27,7.80
2010,01,19,08,28,7.80
2010,01,19,08,29,7.80
2010,01,19,08,30,7.90
2010,01,19,08,31,7.90
2010,01,19,08,32,7.90
2010,01,19,08,33,7.90
2010,01,19,08,34,7.90
2010,01,19,08,35,8.00
2010,01,19,08,36,8.00
2010,01,19,08,37,8.10
2010,01,19,08,38,8.10
2010,01,19,08,39,8.20
2010,01,19,08,40,8.20
2010,01,19,08,41,8.20
2010,01,19,08,42,8.30
2010,01,19,08,43,8.30
2010,01,19,08,44,8.30
2010,01,19,08,45,8.30
2010,01,19,08,46,8.30
2010,01,19,08,47,8.30
2010,01,19,08,48,8.30
2010,01,19,08,49,8.30
2010,01,19,08,50,8.30
2010,01,19,08,51,8.30
2010,01,19,08,52,8.30
2010,01,19,08,53,8.30
2010,01,19,08,54,8.30
2010,01,19,08,55,8.20
2010,01,19,08,56,8.10
2010,01,19,08,57,8.00
2010,01,19,08,58,7.90
2010,01,19,08,59,7.80
2010,01,19,09,00,7.70
2010,01,19,09,01,7.70
2010,01,19,09,02,7.60
2010,01,19,09,03,7.60
2010,01,19,09,04,7.50
2010,01,19,09,05,7.40
2010,01,19,09,06,7.40
2010,01,19,09,07,7.40
2010,01,19,09,08,7.30
2010,01,19,09,09,7.30
2010,01,19,09,10,7.30
2010,01,19,09,11,7.20
2010,01,19,09,12,7.20
2010,01,19,09,13,7.20
2010,01,19,09,14,7.20
2010,01,19,09,15,7.20
2010,01,19,09,16,7.10
2010,01,19,09,17,7.10
2010,01,19,09,18,7.10
2010,01,19,09,19,7.10
2010,01,19,09,20,7.10
2010,01,19,09,21,7.00
2010,01,19,09,22,7.00
2010,01,19,09,23,7.00
2010,01,19,09,24,6.90
2010,01,19,09,25,6.90
2010,01,19,09,26,6.90
2010,01,19,09,27,6.90
2010,01,19,09,28,6.90
2010,01,19,09,29,6.90
2010,01,19,09,30,6.90
2010,01,19,09,31,6.90
2010,01,19,09,32,6.80
2010,01,19,09,33,6.80
2010,01,19,09,34,6.80
2010,01,19,09,35,6.80
2010,01,19,09,36,6.80
2010,01,19,09,37,6.80
2010,01,19,09,38,6.80
2010,01,19,09,39,6.90
2010,01,19,09,40,6.90
2010,01,19,09,41,7.00
2010,01,19,09,42,7.00
2010,01,19,09,43,7.10
2010,01,19,09,44,7.20
2010,01,19,09,45,7.30
2010,01,19,09,46,7.40
2010,01,19,09,47,7.40
2010,01,19,09,48,7.50
2010,01,19,09,49,7.60
2010,01,19,09,50,7.60
2010,01,19,09,51,7.70
2010,01,19,09,52,7.70
2010,01,19,09,53,7.80
2010,01,19,09,54,7.90
2010,01,19,09,55,8.00
2010,01,19,09,56,8.20
2010,01,19,09,57,8.20
2010,01,19,09,58,8.30
2010,01,19,09,59,8.30
2010,01,19,10,00,8.40
2010,01,19,10,01,8.40
2010,01,19,10,02,8.40
2010,01,19,10,03,8.50
2010,01,19,10,04,8.50
2010,01,19,10,05,8.50
2010,01,19,10,06,8.50
2010,01,19,10,07,8.50
2010,01,19,10,08,8.50
2010,01,19,10,09,8.50
2010,01,19,10,10,8.50
2010,01,19,10,11,8.50
2010,01,19,10,12,8.50
2010,01,19,10,13,8.50
2010,01,19,10,14,8.50
2010,01,19,10,15,8.50
2010,01,19,10,16,8.50
2010,01,19,10,17,8.50
2010,01,19,10,18,8.50
2010,01,19,10,19,8.50
2010,01,19,10,20,8.50
2010,01,19,10,21,8.50
2010,01,19,10,22,8.50
2010,01,19,10,23,8.50
2010,01,19,10,24,8.50
2010,01,19,10,25,8.50
2010,01,19,10,26,8.50
2010,01,19,10,27,8.50
2010,01,19,10,28,8.50
2010,01,19,10,29,8.50
2010,01,19,10,30,8.50
2010,01,19,10,31,8.50
2010,01,19,10,32,8.50
2010,01,19,10,33,8.50
2010,01,19,10,34,8.50
2010,01,19,10,35,8.50
2010,01,19,10,36,8.50
2010,01,19,10,37,8.60
2010,01,19,10,38,8.60
2010,01,19,10,39,8.60
2010,01,19,10,40,8.60
2010,01,19,10,41,8.60
2010,01,19,10,42,8.60
2010,01,19,10,43,8.60
2010,01,19,10,44,8.60
2010,01,19,10,45,8.60
2010,01,19,10,46,8.60
2010,01,19,10,47,8.60
2010,01,19,10,48,8.60
2010,01,19,10,49,8.60
2010,01,19,10,50,8.60
2010,01,19,10,51,8.60
2010,01,19,10,52,8.60
2010,01,19,10,53,8.60
2010,01,19,10,54,8.60
2010,01,19,10,55,8.60
2010,01,19,10,56,8.60
2010,01,19,10,57,8.60
2010,01,19,10,58,8.60
2010,01,19,10,59,8.60
2010,01,19,11,00,8.60
2010,01,19,11,01,8.60
2010,01,19,11,02,8.60
2010,01,19,11,03,8.60
2010,01,19,11,04,8.60
2010,01,19,11,05,8.60
2010,01,19,11,06,8.60
2010,01,19,11,07,8.50
2010,01,19,11,08,8.60
2010,01,19,11,09,8.50
2010,01,19,11,10,8.50
2010,01,19,11,11,8.50
2010,01,19,11,12,8.50
2010,01,19,11,13,8.50
2010,01,19,11,14,8.50
2010,01,19,11,15,8.50
2010,01,19,11,16,8.50
2010,01,19,11,17,8.50
2010,01,19,11,18,8.50
2010,01,19,11,19,8.50
2010,01,19,11,20,8.60
2010,01,19,11,21,8.50
2010,01,19,11,22,8.60
2010,01,19,11,23,8.50
2010,01,19,11,24,8.50
2010,01,19,11,25,8.50
2010,01,19,11,26,8.50
2010,01,19,11,27,8.50
2010,01,19,11,28,8.50
2010,01,19,11,29,8.50
2010,01,19,11,30,8.60
2010,01,19,11,31,8.60
2010,01,19,11,32,8.60
2010,01,19,11,33,8.60
2010,01,19,11,34,8.60
2010,01,19,11,35,8.60
2010,01,19,11,36,8.50
2010,01,19,11,37,8.50
2010,01,19,11,38,8.50
2010,01,19,11,39,8.50
2010,01,19,11,40,8.50
2010,01,19,11,41,8.50
2010,01,19,11,42,8.50
2010,01,19,11,43,8.50
2010,01,19,11,44,8.50
2010,01,19,11,45,8.50
2010,01,19,11,46,8.40
2010,01,19,11,47,8.40
2010,01,19,11,48,8.50
2010,01,19,11,49,8.40
2010,01,19,11,50,8.50
2010,01,19,11,51,8.50
2010,01,19,11,52,8.50
2010,01,19,11,53,8.60
2010,01,19,11,54,8.60
2010,01,19,11,55,8.60
2010,01,19,11,56,8.60
2010,01,19,11,57,8.60
2010,01,19,11,58,8.70
2010,01,19,11,59,8.70
2010,01,19,12,00,8.80
2010,01,19,12,01,8.80
2010,01,19,12,02,8.80
2010,01,19,12,03,8.80
2010,01,19,12,04,8.80
2010,01,19,12,05,8.80
2010,01,19,12,06,8.90
2010,01,19,12,07,8.90
2010,01,19,12,08,8.90
2010,01,19,12,09,8.90
2010,01,19,12,10,8.90
2010,01,19,12,11,8.90
2010,01,19,12,12,8.90
2010,01,19,12,13,8.90
2010,01,19,12,14,8.90
2010,01,19,12,15,8.80
2010,01,19,12,16,8.80
2010,01,19,12,17,8.80
2010,01,19,12,18,8.80
2010,01,19,12,19,8.80
2010,01,19,12,20,8.80
2010,01,19,12,21,8.80
2010,01,19,12,22,8.80
2010,01,19,12,23,8.80
2010,01,19,12,24,8.80
2010,01,19,12,25,8.80
2010,01,19,12,26,8.80
2010,01,19,12,27,8.80
2010,01,19,12,28,8.80
2010,01,19,12,29,8.80
2010,01,19,12,30,8.80
2010,01,19,12,31,8.80
2010,01,19,12,32,8.80
2010,01,19,12,33,8.80
2010,01,19,12,34,8.80
2010,01,19,12,35,8.80
2010,01,19,12,36,8.90
2010,01,19,12,37,8.90
2010,01,19,12,38,8.90
2010,01,19,12,39,8.90
2010,01,19,12,40,8.90
2010,01,19,12,41,8.90
2010,01,19,12,42,8.90
2010,01,19,12,43,8.90
2010,01,19,12,44,8.90
2010,01,19,12,45,8.90
2010,01,19,12,46,8.90
2010,01,19,12,47,8.90
2010,01,19,12,48,8.90
2010,01,19,12,49,8.90
2010,01,19,12,50,8.90
2010,01,19,12,51,8.90
2010,01,19,12,52,9.00
2010,01,19,12,53,9.00
2010,01,19,12,54,9.00
2010,01,19,12,55,9.10
2010,01,19,12,56,9.10
2010,01,19,12,57,9.10
2010,01,19,12,58,9.00
2010,01,19,12,59,9.10
2010,01,19,13,00,9.10
2010,01,19,13,01,9.10
2010,01,19,13,02,9.10
2010,01,19,13,03,9.10
2010,01,19,13,04,9.10
2010,01,19,13,05,9.20
2010,01,19,13,06,9.20
2010,01,19,13,07,9.20
2010,01,19,13,08,9.20
2010,01,19,13,09,9.20
2010,01,19,13,10,9.20
2010,01,19,13,11,9.20
2010,01,19,13,12,9.20
2010,01,19,13,13,9.20
2010,01,19,13,14,9.20
2010,01,19,13,15,9.20
2010,01,19,13,16,9.20
2010,01,19,13,17,9.20
2010,01,19,13,18,9.20
2010,01,19,13,19,9.20
2010,01,19,13,20,9.20
2010,01,19,13,21,9.20
2010,01,19,13,22,9.10
2010,01,19,13,23,9.10
2010,01,19,13,24,9.10
2010,01,19,13,25,9.10
2010,01,19,13,26,9.10
2010,01,19,13,27,9.00
2010,01,19,13,28,9.00
2010,01,19,13,29,9.00
2010,01,19,13,30,9.00
2010,01,19,13,31,9.00
2010,01,19,13,32,8.90
2010,01,19,13,33,8.90
2010,01,19,13,34,8.90
2010,01,19,13,35,8.90
2010,01,19,13,36,8.90
2010,01,19,13,37,8.90
2010,01,19,13,38,8.90
2010,01,19,13,39,8.90
2010,01,19,13,40,8.90
2010,01,19,13,41,8.90
2010,01,19,13,42,8.90
2010,01,19,13,43,8.90
2010,01,19,13,44,8.90
2010,01,19,13,45,8.90
2010,01,19,13,46,8.90
2010,01,19,13,47,9.00
2010,01,19,13,48,8.90
2010,01,19,13,49,8.90
2010,01,19,13,50,8.90
2010,01,19,13,51,9.00
2010,01,19,13,52,9.00
2010,01,19,13,53,9.00
2010,01,19,13,54,9.00
2010,01,19,13,55,9.00
2010,01,19,13,56,9.00
2010,01,19,13,57,9.00
2010,01,19,13,58,9.00
2010,01,19,13,59,9.00
2010,01,19,14,00,9.00
2010,01,19,14,01,9.00
2010,01,19,14,02,9.00
2010,01,19,14,03,9.00
2010,01,19,14,04,9.00
2010,01,19,14,05,9.00
2010,01,19,14,06,9.00
2010,01,19,14,07,9.10
2010,01,19,14,08,9.10
2010,01,19,14,09,9.10
2010,01,19,14,10,9.10
2010,01,19,14,11,9.10
2010,01,19,14,12,9.20
2010,01,19,14,13,9.20
2010,01,19,14,14,9.20
2010,01,19,14,15,9.20
2010,01,19,14,16,9.30
2010,01,19,14,17,9.30
2010,01,19,14,18,9.40
2010,01,19,14,19,9.40
2010,01,19,14,20,9.40
2010,01,19,14,21,9.50
2010,01,19,14,22,9.50
2010,01,19,14,23,9.50
2010,01,19,14,24,9.50
2010,01,19,14,25,9.50
2010,01,19,14,26,9.60
2010,01,19,14,27,9.60
2010,01,19,14,28,9.60
2010,01,19,14,29,9.60
2010,01,19,14,30,9.60
2010,01,19,14,31,9.60
2010,01,19,14,32,9.60
2010,01,19,14,33,9.60
2010,01,19,14,34,9.60
2010,01,19,14,35,9.60
2010,01,19,14,36,9.60
2010,01,19,14,37,9.70
2010,01,19,14,38,9.70
2010,01,19,14,39,9.60
2010,01,19,14,40,9.60
2010,01,19,14,41,9.60
2010,01,19,14,42,9.60
2010,01,19,14,43,9.50
2010,01,19,14,44,9.50
2010,01,19,14,45,9.50
2010,01,19,14,46,9.40
2010,01,19,14,47,9.40
2010,01,19,14,48,9.40
2010,01,19,14,49,9.40
2010,01,19,14,50,9.40
2010,01,19,14,51,9.40
2010,01,19,14,52,9.40
2010,01,19,14,53,9.40
2010,01,19,14,54,9.40
2010,01,19,14,55,9.40
2010,01,19,14,56,9.40
2010,01,19,14,57,9.40
2010,01,19,14,58,9.40
2010,01,19,14,59,9.30
2010,01,19,15,00,9.30
2010,01,19,15,01,9.30
2010,01,19,15,02,9.30
2010,01,19,15,03,9.30
2010,01,19,15,04,9.30
2010,01,19,15,05,9.30
2010,01,19,15,06,9.20
2010,01,19,15,07,9.20
2010,01,19,15,08,9.20
2010,01,19,15,09,9.20
2010,01,19,15,10,9.20
2010,01,19,15,11,9.20
2010,01,19,15,12,9.20
2010,01,19,15,13,9.20
2010,01,19,15,14,9.20
2010,01,19,15,15,9.20
2010,01,19,15,16,9.20
2010,01,19,15,17,9.20
2010,01,19,15,18,9.20
2010,01,19,15,19,9.20
2010,01,19,15,20,9.20
2010,01,19,15,21,9.20
2010,01,19,15,22,9.30
2010,01,19,15,23,9.30
2010,01,19,15,24,9.30
2010,01,19,15,25,9.30
2010,01,19,15,26,9.30
2010,01,19,15,27,9.30
2010,01,19,15,28,9.30
2010,01,19,15,29,9.40
2010,01,19,15,30,9.40
2010,01,19,15,31,9.40
2010,01,19,15,32,9.50
2010,01,19,15,33,9.50
2010,01,19,15,34,9.60
2010,01,19,15,35,9.60
2010,01,19,15,36,9.60
2010,01,19,15,37,9.60
2010,01,19,15,38,9.70
2010,01,19,15,39,9.70
2010,01,19,15,40,9.70
2010,01,19,15,41,9.70
2010,01,19,15,42,9.70
2010,01,19,15,43,9.80
2010,01,19,15,44,9.80
2010,01,19,15,45,9.80
2010,01,19,15,46,9.80
2010,01,19,15,47,9.90
2010,01,19,15,48,9.90
2010,01,19,15,49,9.90
2010,01,19,15,50,9.90
2010,01,19,15,51,9.90
2010,01,19,15,52,10.00
2010,01,19,15,53,10.00
2010,01,19,15,54,10.00
2010,01,19,15,55,9.90
2010,01,19,15,56,9.90
2010,01,19,15,57,9.90
2010,01,19,15,58,9.90
2010,01,19,15,59,9.90
2010,01,19,16,00,9.90
2010,01,19,16,01,9.90
2010,01,19,16,02,9.90
2010,01,19,16,03,9.90
2010,01,19,16,04,9.90
2010,01,19,16,05,9.90
2010,01,19,16,06,9.90
2010,01,19,16,07,9.90
2010,01,19,16,08,9.90
2010,01,19,16,09,10.00
2010,01,19,16,10,10.00
2010,01,19,16,11,10.00
2010,01,19,16,12,10.00
2010,01,19,16,13,10.00
2010,01,19,16,14,10.00
2010,01,19,16,15,10.00
2010,01,19,16,16,10.00
2010,01,19,16,17,10.00
2010,01,19,16,18,10.00
2010,01,19,16,19,10.00
2010,01,19,16,20,10.00
2010,01,19,16,21,10.00
2010,01,19,16,22,10.10
2010,01,19,16,23,10.10
2010,01,19,16,24,10.10
2010,01,19,16,25,10.20
2010,01,19,16,26,10.20
2010,01,19,16,27,10.20
2010,01,19,16,28,10.20
2010,01,19,16,29,10.30
2010,01,19,16,30,10.30
2010,01,19,16,31,10.30
2010,01,19,16,32,10.30
2010,01,19,16,33,10.30
2010,01,19,16,34,10.30
2010,01,19,16,35,10.40
2010,01,19,16,36,10.40
2010,01,19,16,37,10.40
2010,01,19,16,38,10.40
2010,01,19,16,39,10.40
2010,01,19,16,40,10.40
2010,01,19,16,41,10.40
2010,01,19,16,42,10.40
2010,01,19,16,43,10.40
2010,01,19,16,44,10.40
2010,01,19,16,45,10.40
2010,01,19,16,46,10.40
2010,01,19,16,47,10.40
2010,01,19,16,48,10.40
2010,01,19,16,49,10.40
2010,01,19,16,50,10.40
2010,01,19,16,51,10.40
2010,01,19,16,52,10.40
2010,01,19,16,53,10.40
2010,01,19,16,54,10.30
2010,01,19,16,55,10.30
2010,01,19,16,56,10.30
2010,01,19,16,57,10.30
2010,01,19,16,58,10.30
2010,01,19,16,59,10.30
2010,01,19,17,00,10.30
2010,01,19,17,01,10.20
2010,01,19,17,02,10.20
2010,01,19,17,03,10.20
2010,01,19,17,04,10.20
2010,01,19,17,05,10.20
2010,01,19,17,06,10.10
2010,01,19,17,07,10.10
2010,01,19,17,08,10.10
2010,01,19,17,09,10.00
2010,01,19,17,10,10.00
2010,01,19,17,11,10.00
2010,01,19,17,12,10.00
2010,01,19,17,13,10.00
2010,01,19,17,14,10.00
2010,01,19,17,15,10.00
2010,01,19,17,16,10.10
2010,01,19,17,17,10.10
2010,01,19,17,18,10.20
2010,01,19,17,19,10.20
2010,01,19,17,20,10.20
2010,01,19,17,21,10.30
2010,01,19,17,22,10.30
2010,01,19,17,23,10.30
2010,01,19,17,24,10.30
2010,01,19,17,25,10.30
2010,01,19,17,26,10.40
2010,01,19,17,27,10.40
2010,01,19,17,28,10.40
2010,01,19,17,29,10.40
2010,01,19,17,30,10.40
2010,01,19,17,31,10.40
2010,01,19,17,32,10.40
2010,01,19,17,33,10.40
2010,01,19,17,34,10.30
2010,01,19,17,35,10.30
2010,01,19,17,36,10.30
2010,01,19,17,37,10.30
2010,01,19,17,38,10.40
2010,01,19,17,39,10.40
2010,01,19,17,40,10.40
2010,01,19,17,41,10.40
2010,01,19,17,42,10.40
2010,01,19,17,43,10.40
2010,01,19,17,44,10.40
2010,01,19,17,45,10.40
2010,01,19,17,46,10.40
2010,01,19,17,47,10.40
2010,01,19,17,48,10.40
2010,01,19,17,49,10.40
2010,01,19,17,50,10.30
2010,01,19,17,51,10.30
2010,01,19,17,52,10.30
2010,01,19,17,53,10.30
2010,01,19,17,54,10.30
2010,01,19,17,55,10.30
2010,01,19,17,56,10.30
2010,01,19,17,57,10.30
2010,01,19,17,58,10.20
2010,01,19,17,59,10.20
2010,01,19,18,00,10.20
2010,01,19,18,01,10.20